Regional Weather Roundup
Issued by NWS

Home | Current Version | Previous Version | Graphics & Text | Print | Product List | Glossary On
Versions: 1 2 3 4 5 6 7 8 9 10 11 12 13 14 15 16 17 18 19 20 21 22 23 24 25 26 27 28 29 30 31 32 33 34 35 36 37 38 39 40 41 42 43 44 45 46 47 48 49 50
000
ASUS43 KDTX 221801
RWRMI
MICHIGAN HOURLY REGIONAL WEATHER ROUNDUP
NATIONAL WEATHER SERVICE DETROIT/PONTIAC MI
200 PM EDT SUN OCT 22 2017

NOTE: "FAIR" INDICATES FEW OR NO CLOUDS BELOW 12,000 FEET WITH NO
SIGNIFICANT WEATHER AND/OR OBSTRUCTION TO VISIBILITY.

MIZ047>049-052>055-059>063-066>070-074>076-081>083-221900-
SOUTHEAST LOWER MICHIGAN

CITY           SKY/WX    TMP DP  RH WIND       PRES   REMARKS
ADRIAN         SUNNY     76  55  48 S17G25    30.09F
6HR MIN TEMP:  52; 6HR MAX TEMP:  76;

ALMA           SUNNY     77  54  45 S15G23    30.01F
ANN ARBOR      SUNNY     75  57  53 S14G23    30.08F
BAD AXE        SUNNY     73  50  43 S20G29    30.06F
CARO           SUNNY     76  54  46 S15G22    30.03F
DETROIT CITY   SUNNY     72  56  57 S16       30.10F
6HR MIN TEMP:  56; 6HR MAX TEMP:  72;

DETROIT        MOSUNNY   75  57  53 S14       30.11F
6HR MIN TEMP:  55; 6HR MAX TEMP:  75;

FLINT          SUNNY     75  56  51 S20G26    30.05F
6HR MIN TEMP:  56; 6HR MAX TEMP:  75;

GROSSE ILE     SUNNY     69  58  68 S10       30.10F
6HR MIN TEMP:  59; 6HR MAX TEMP:  69;

HILLSDALE      SUNNY     73  54  49 S16G24    30.07F
HOWELL         SUNNY     75  56  51 S15G22    30.06F
6HR MIN TEMP:  54; 6HR MAX TEMP:  75;


CITY           SKY/WX    TMP DP  RH WIND       PRES   REMARKS
JACKSON        MOSUNNY   75  57  53 S16       30.06F
6HR MIN TEMP:  56; 6HR MAX TEMP:  75;

LAMBERTVILLE   SUNNY     79  55  43 SW12G17   30.09F
6HR MIN TEMP:  56; 6HR MAX TEMP:  79;

LANSING        SUNNY     75  56  51 S18G24    30.03F
6HR MIN TEMP:  57; 6HR MAX TEMP:  76;

LAPEER         FAIR      74  56  53 S15G24    30.07F
6HR MIN TEMP:  55; 6HR MAX TEMP:  74;

MASON          SUNNY     76  56  51 S10G23    30.05F
MONROE         SUNNY     76  54  46 S10G24    30.09F
6HR MIN TEMP:  57; 6HR MAX TEMP:  76;

MT. CLEMENS    MOSUNNY   71  58  63 S18       30.09F
6HR MIN TEMP:  53; 6HR MAX TEMP:  71;

PONTIAC        PTSUNNY   73  56  54 S12G23    30.07F
6HR MIN TEMP:  55; 6HR MAX TEMP:  73;

PORT HOPE        N/A     75  50  41 S13G25    30.03F
6HR MIN TEMP:  58; 6HR MAX TEMP:  75;

PORT HURON     SUNNY     75  54  46 S16       30.11F
TRI CITIES     SUNNY     77  57  50 S20G26    30.02F
6HR MIN TEMP:  59; 6HR MAX TEMP:  77;

MIDLAND        FAIR      77  54  44 S13G20    30.00F
6HR MIN TEMP:  57; 6HR MAX TEMP:  77;

TROY           SUNNY     73  56  54 SE8       30.11F
SAGINAW HB     SUNNY     75  54  46 S21G29    30.02F
$$
MIZ043>046-050>051-056>058-064>065-071>073-077>080-221900-
SOUTHWEST LOWER MICHIGAN

CITY           SKY/WX    TMP DP  RH WIND       PRES   REMARKS
BATTLE CREEK   MOSUNNY   74  59  59 S16G25    30.03F
6HR MIN TEMP:  59; 6HR MAX TEMP:  75;

BENTON HARBOR  PTSUNNY   72  57  59 S16G24    29.98F
6HR MIN TEMP:  62; 6HR MAX TEMP:  73;

BIG RAPIDS     CLOUDY    74  56  54 S9G23     29.95F
6HR MIN TEMP:  57; 6HR MAX TEMP:  74;

COLDWATER      PTSUNNY   75  55  48 S10G20    30.05F
6HR MIN TEMP:  56; 6HR MAX TEMP:  76;

FREMONT        LGT RAIN  66  63  89 S7        29.97R
HOLLAND        MOSUNNY   73  59  61 S21G28    29.98F
6HR MIN TEMP:  62; 6HR MAX TEMP:  75;

GRAND RAPIDS   PTSUNNY   75  60  59 S20G26    29.99F
6HR MIN TEMP:  61; 6HR MAX TEMP:  75;

IONIA          FAIR      75  56  52 S17G28    30.00F
6HR MIN TEMP:  59; 6HR MAX TEMP:  76;

KALAMAZOO      CLOUDY    73  58  59 S17       30.02F
6HR MIN TEMP:  60; 6HR MAX TEMP:  74;

LUDINGTON      CLOUDY    64  59  85 S14G21    29.92F
6HR MIN TEMP:  61; 6HR MAX TEMP:  70; 6HR PCP:  0.05;

MARSHALL       CLOUDY    74  58  57 S10G22    30.04F
6HR MIN TEMP:  57; 6HR MAX TEMP:  74;

MOUNT PLEASANT SUNNY     76  53  44 S9G20     29.99F
6HR MIN TEMP:  59; 6HR MAX TEMP:  76;

MUSKEGON       CLOUDY    68  62  81 S10       29.95F
6HR MIN TEMP:  64; 6HR MAX TEMP:  74; 6HR PCP:  0.02;

SOUTH HAVEN    PTSUNNY   73  57  57 S13G24    29.97F
$$
MIZ016>042-221900-
NORTHERN LOWER MICHIGAN

CITY           SKY/WX    TMP DP  RH WIND       PRES   REMARKS
ALPENA         SUNNY     76  57  51 S21       29.98F
6HR MIN TEMP:  54; 6HR MAX TEMP:  76;

BEAVER ISLAND  CLOUDY    69  56  64 S10G18    29.90F
6HR MIN TEMP:  63; 6HR MAX TEMP:  72;

BELLAIRE       MOSUNNY   76  55  48 S14G23    29.90F
6HR MIN TEMP:  63; 6HR MAX TEMP:  76;

CADILLAC       PTSUNNY   75  56  51 S14G23    29.93F
CHARLEVOIX     CLOUDY    75  57  53 S12G22    29.91F
6HR MIN TEMP:  63; 6HR MAX TEMP:  75;

FRANKFORT      CLOUDY    68  59  73 S7        29.90F
GAYLORD        MOSUNNY   72  52  49 S16       29.95F
6HR MIN TEMP:  57; 6HR MAX TEMP:  73;

GRAYLING       SUNNY     74  53  47 S10G18    29.96F
6HR MIN TEMP:  56; 6HR MAX TEMP:  74;

HARBOR SPRINGS CLOUDY    76  54  45 S12G20    29.90F
HOUGHTON LAKE  SUNNY     73  51  46 S20G25    29.98F
6HR MIN TEMP:  57; 6HR MAX TEMP:  75;

MANISTEE       HVY RAIN  64  61  90 S8        29.92F FOG
OSCODA         SUNNY     74  49  40 S18G28    30.01F
6HR MIN TEMP:  59; 6HR MAX TEMP:  75;

PELLSTON       CLOUDY    78  55  44 S16G24    29.90F
6HR MIN TEMP:  60; 6HR MAX TEMP:  79;

ROGERS CITY    SUNNY     75  56  51 S16G22    29.96F
TRAVERSE CITY  PTSUNNY   77  58  51 S14G23    29.87F
6HR MIN TEMP:  63; 6HR MAX TEMP:  78;

$$
MIZ007>008-015-221900-
EASTERN UPPER MICHIGAN

CITY           SKY/WX    TMP DP  RH WIND       PRES   REMARKS
KINROSS        CLOUDY    70  56  61 SE12      29.92F
6HR MIN TEMP:  57; 6HR MAX TEMP:  70;

MACKINAC ISLAN CLOUDY    73  54  51 S7        29.90F
6HR MIN TEMP:  61; 6HR MAX TEMP:  73;

NEWBERRY       CLOUDY    64  58  83 S13       29.89F
6HR MIN TEMP:  60; 6HR MAX TEMP:  65;

S. S. MARIE    CLOUDY    67  54  63 SE9       29.91F
6HR MIN TEMP:  59; 6HR MAX TEMP:  69;

MUNISING         N/A     54  54 100 N9        29.89R
6HR MIN TEMP:  54; 6HR MAX TEMP:  65; 6HR PCP:  0.21;

$$
MIZ004>006-011>014-085-221900-
CENTRAL UPPER MICHIGAN

CITY           SKY/WX    TMP DP  RH WIND       PRES   REMARKS
MANISTIQUE     CLOUDY    59  53  80 SW10G16   29.88S
6HR MIN TEMP:  59; 6HR MAX TEMP:  63;

ESCANABA       LGT RAIN  53  51  93 NW8       29.90S
6HR MIN TEMP:  53; 6HR MAX TEMP:  61; 6HR PCP:  0.27;

MENOMINEE      LGT RAIN  52  50  93 VRB5      29.93F
6HR MIN TEMP:  51; 6HR MAX TEMP:  64; 6HR PCP:  0.12;

SAWYER-GWINN   CLOUDY    50  45  81 W6        29.91F
$$
MIZ001>003-009>011-084-221900-
WESTERN UPPER MICHIGAN

CITY           SKY/WX    TMP DP  RH WIND       PRES   REMARKS
IRON MOUNTAIN  RAIN      51  46  83 W8        29.93R
6HR MIN TEMP:  51; 6HR MAX TEMP:  62; 6HR PCP:  0.06;

HOUGHTON       LGT RAIN  51  42  71 W20G25    29.87R
6HR MIN TEMP:  51; 6HR MAX TEMP:  53; 6HR PCP:  0.02;

COPPER HARBOR    N/A     52  45  77 W8        29.86R
6HR MIN TEMP:  52; 6HR MAX TEMP:  57; 6HR PCP:  0.02;

IRONWOOD       CLOUDY    50  39  66 W9        29.92S
6HR MIN TEMP:  49; 6HR MAX TEMP:  51; 6HR PCP: TRACE;

$$

ABBREVIATIONS USED IN REMARKS
   TC - TEMPERATURE IN CELSIUS
  WCI - WIND CHILL INDEX
   HX - HEAT INDEX
  VSB - VISIBILITY





USA.gov is the U.S. government's official web portal to all federal, state and local government web resources and services.